Mumbai, India

6:23 AM IST on February 24, 2017 (GMT +0530)
Chhatrapati Shivaji International

Weather History for VABB - January, 2013

Change the Weather History Date:

Wednesday, January 23, 2013

  Actual Average Record
Temperature  
Mean Temperature 72 °F -  
Max Temperature 86 °F 87 °F 96 °F (2017)
Min Temperature 58 °F 68 °F 58 °F (2013)
Cooling Degree Days 7    
Growing Degree Days 22 (Base 50)    
Moisture  
Dew Point 61 °F    
Average Humidity 66    
Maximum Humidity 89    
Minimum Humidity 29    
Precipitation  
Precipitation 0.00 in - - ()
Sea Level Pressure  
Sea Level Pressure 29.94 in    
Wind  
Wind Speed 3 mph ()    
Max Wind Speed 13 mph    
Max Gust Speed -    
Visibility 1.2 miles    
Events      
Averages and records for this station are not official NWS values.
T = Trace of Precipitation, MM = Missing Value Source: Averaged Metar Reports

Daily Weather History Graph

Daily Weather History Graph

Search for Another Location

Airport or City:

Trip Planner

Search our weather history database for the weather conditions in past years. The results will help you decide how hot, cold, wet, or windy it might be!

Date:

Astronomy

Jan. 23, 2013 Rise Set
Actual Time 7:14 AM IST 6:26 PM IST
Civil Twilight 6:51 AM IST 6:49 PM IST
Nautical Twilight 6:24 AM IST 7:16 PM IST
Astronomical Twilight 5:58 AM IST 7:42 PM IST
Moon 3:20 PM IST (1/23) 3:58 AM IST (1/23)
Length of Visible Light 11h 57m
Length of Day
11h 11m
Waxing Gibbous, 86% of the Moon is Illuminated
Jan 23
Waxing Gibbous
Jan 27
Full
Feb 3
Last Quarter
Feb 10
New
Feb 18
First Quarter

Hourly Weather History & Observations

Time (IST) Temp. Heat Index Dew Point Humidity Pressure Visibility Wind Dir Wind Speed Gust Speed Precip Events Conditions
12:10 AM 69.8 °F - 59.0 °F 68% 29.95 in 0.7 mi Calm Calm - N/A   Haze
12:40 AM 69.8 °F - 59.0 °F 68% 29.95 in 0.8 mi Calm Calm - N/A   Haze
1:40 AM 69.8 °F - 60.8 °F 73% 29.92 in 0.9 mi Calm Calm - N/A   Haze
2:10 AM 68.0 °F - 60.8 °F 78% 29.92 in 0.9 mi Calm Calm - N/A   Haze
2:30 AM 61 °F - 58 °F 85% 29.93 in 1 mi Calm Calm - -   Haze
2:40 AM 68.0 °F - 60.8 °F 78% 29.92 in 0.9 mi Calm Calm - N/A   Mist
3:10 AM 68.0 °F - 60.8 °F 78% 29.92 in 0.9 mi Calm Calm - N/A   Mist
3:40 AM 68.0 °F - 62.6 °F 83% 29.92 in 0.9 mi Calm Calm - N/A   Mist
4:10 AM 68.0 °F - 60.8 °F 78% 29.92 in 0.9 mi Calm Calm - N/A   Mist
4:40 AM 68.0 °F - 60.8 °F 78% 29.92 in 0.9 mi Calm Calm - N/A   Mist
5:10 AM 66.2 °F - 62.6 °F 88% 29.92 in 0.9 mi Calm Calm - N/A   Mist
5:30 AM 59 °F - 56 °F 85% 29.93 in 1 mi Calm Calm - -   Haze
5:40 AM 66.2 °F - 60.8 °F 83% 29.92 in 0.9 mi Calm Calm - N/A   Mist
6:10 AM 66.2 °F - 60.8 °F 83% 29.92 in 0.9 mi ESE 3.5 mph - N/A   Mist
6:40 AM 66.2 °F - 60.8 °F 83% 29.95 in 0.7 mi Calm Calm - N/A   Mist
7:10 AM 68.0 °F - 60.8 °F 78% 29.95 in 0.6 mi SE 3.5 mph - N/A   Mist
7:40 AM 68.0 °F - 60.8 °F 78% 29.98 in 0.6 mi Calm Calm - N/A   Mist
8:10 AM 68.0 °F - 60.8 °F 78% 29.98 in 0.7 mi ESE 3.5 mph - N/A   Mist
8:30 AM 61 °F - 59 °F 89% 29.98 in 1 mi Calm Calm - -   Haze
8:40 AM 69.8 °F - 59.0 °F 68% 29.98 in 0.7 mi Calm Calm - N/A   Haze
10:10 AM 78.8 °F - 55.4 °F 44% 30.01 in 1.4 mi Calm Calm - N/A   Smoke
11:10 AM 82.4 °F 82.0 °F 57.2 °F 42% 30.01 in 1.4 mi SE 5.8 mph - N/A   Smoke
11:30 AM 83 °F - 56 °F 29% 30.00 in 1 mi Calm Calm - -   Smoke
11:40 AM 82.4 °F 82.9 °F 60.8 °F 48% 29.98 in 1.4 mi WNW 5.8 mph - N/A   Smoke
12:10 PM 82.4 °F 82.9 °F 60.8 °F 48% 29.98 in 1.3 mi West 9.2 mph - N/A   Smoke
12:40 PM 82.4 °F 83.4 °F 62.6 °F 51% 29.95 in 1.1 mi WNW 9.2 mph - N/A   Smoke
1:10 PM 84.2 °F 85.0 °F 62.6 °F 48% 29.95 in 1.1 mi WNW 11.5 mph - N/A   Smoke
1:40 PM 84.2 °F 85.6 °F 64.4 °F 51% 29.92 in 1.4 mi WNW 9.2 mph - N/A   Smoke
2:10 PM 84.2 °F 85.0 °F 62.6 °F 48% 29.92 in 1.4 mi West 12.7 mph - N/A   Smoke
2:30 PM 85 °F - 62 °F 36% 29.91 in 1 mi NW 6.9 mph - -   Smoke
2:40 PM 82.4 °F 84.6 °F 66.2 °F 58% 29.92 in 1.4 mi WNW 11.5 mph - N/A   Smoke
3:10 PM 80.6 °F 82.7 °F 66.2 °F 61% 29.89 in 1.6 mi West 12.7 mph - N/A   Smoke
3:40 PM 80.6 °F 82.7 °F 66.2 °F 61% 29.89 in 1.6 mi WNW 12.7 mph - N/A   Smoke
4:40 PM 80.6 °F 82.7 °F 66.2 °F 61% 29.89 in 1.9 mi WNW 11.5 mph - N/A   Smoke
5:10 PM 80.6 °F 81.8 °F 62.6 °F 54% 29.89 in 1.6 mi West 8.1 mph - N/A   Smoke
5:30 PM 81 °F - 64 °F 46% 29.91 in 1 mi NW 5.8 mph - -   Smoke
5:40 PM 80.6 °F 81.8 °F 62.6 °F 54% 29.92 in 1.6 mi WNW 8.1 mph - N/A   Smoke
6:40 PM 77.0 °F - 64.4 °F 65% 29.92 in 2.2 mi NW 6.9 mph - N/A   Smoke
7:10 PM 77.0 °F - 62.6 °F 61% 29.92 in 2.2 mi NW 5.8 mph - N/A   Smoke
8:10 PM 75.2 °F - 60.8 °F 61% 29.95 in 1.6 mi NW 3.5 mph - N/A   Smoke
8:30 PM 73 °F - 61 °F 57% 29.96 in 1 mi North 4.6 mph - -   Smoke
8:40 PM 75.2 °F - 62.6 °F 65% 29.95 in 1.4 mi NNW 8.1 mph - N/A   Smoke
9:10 PM 75.2 °F - 62.6 °F 65% 29.98 in 1.4 mi NNW 4.6 mph - N/A   Smoke
9:40 PM 73.4 °F - 62.6 °F 69% 29.98 in 1.4 mi North 4.6 mph - N/A   Smoke
10:10 PM 73.4 °F - 62.6 °F 69% 29.98 in 1.4 mi NNE 4.6 mph - N/A   Smoke
10:40 PM 73.4 °F - 60.8 °F 65% 29.98 in 1.4 mi SSE 3.5 mph - N/A   Haze
11:10 PM 71.6 °F - 60.8 °F 69% 29.98 in 1.4 mi Calm Calm - N/A   Haze
11:30 PM 65 °F - 61 °F 81% 29.97 in 1 mi Calm Calm - -   Haze
11:40 PM 69.8 °F - 62.6 °F 78% 29.95 in 1.1 mi Calm Calm - N/A   Haze